| time (UTC) | temp F | wind direction | speed MPH | gust MPH | rain 1hr in | rain 24hr in | rain mn in | humidity % | barometer mb |
| 20260505204305 | 66 | 270 | 2.0 | 3.0 | 0.00 | 0.00 | 0.00 | 98 | 1014.0 |
| 20260505203704 | 66 | 267 | 2.0 | 3.0 | 0.00 | 0.00 | 0.00 | 98 | 1014.0 |
| 20260505203104 | 66 | 269 | 1.0 | 3.0 | 0.00 | 0.00 | 0.00 | 99 | 1014.0 |
| 20260505202505 | 65 | 262 | 1.0 | 3.0 | 0.00 | 0.00 | 0.00 | 98 | 1013.9 |
| 20260505201305 | 65 | 271 | 2.0 | 3.0 | 0.00 | 0.00 | 0.00 | 98 | 1013.8 |
| 20260505195505 | 65 | 262 | 2.0 | 2.0 | 0.00 | 0.00 | 0.00 | 99 | 1013.8 |
| 20260505194305 | 64 | 253 | 2.0 | 3.0 | 0.00 | 0.00 | 0.00 | 99 | 1013.7 |
| 20260505193705 | 63 | 255 | 2.0 | 3.0 | 0.00 | 0.00 | 0.00 | 99 | 1013.7 |
| 20260505192505 | 63 | 274 | 2.0 | 3.0 | 0.00 | 0.00 | 0.00 | 99 | 1013.4 |
| 20260505191904 | 63 | 258 | 2.0 | 3.0 | 0.00 | 0.00 | 0.00 | 99 | 1013.2 |
| 20260505191305 | 63 | 257 | 1.0 | 3.0 | 0.00 | 0.00 | 0.00 | 99 | 1013.2 |
| 20260505190705 | 63 | 259 | 2.0 | 3.0 | 0.00 | 0.00 | 0.00 | 99 | 1013.3 |
| 20260505190104 | 63 | 276 | 2.0 | 3.0 | 0.00 | 0.00 | 0.00 | 99 | 1013.2 |
| 20260505185504 | 63 | 265 | 1.0 | 3.0 | 0.00 | 0.00 | 0.00 | 99 | 1013.2 |
| 20260505184904 | 63 | 247 | 1.0 | 2.0 | 0.00 | 0.00 | 0.00 | 99 | 1013.2 |
| 20260505184305 | 63 | 250 | 1.0 | 2.0 | 0.00 | 0.00 | 0.00 | 99 | 1013.0 |
| 20260505183704 | 63 | 273 | 1.0 | 2.0 | 0.00 | 0.00 | 0.00 | 99 | 1013.0 |
| 20260505183105 | 63 | 271 | 1.0 | 3.0 | 0.00 | 0.00 | 0.00 | 99 | 1013.1 |
| 20260505182505 | 63 | 281 | 1.0 | 3.0 | 0.00 | 0.00 | 0.00 | 99 | 1013.1 |
| 20260505181305 | 63 | 253 | 2.0 | 3.0 | 0.00 | 0.00 | 0.00 | 99 | 1013.2 |
| 20260505180705 | 63 | 226 | 1.0 | 2.0 | 0.00 | 0.00 | 0.00 | 99 | 1013.3 |
| 20260505180105 | 63 | 171 | 1.0 | 2.0 | 0.00 | 0.00 | 0.00 | 99 | 1013.2 |
| 20260505175505 | 63 | 160 | 2.0 | 2.0 | 0.00 | 0.00 | 0.00 | 99 | 1013.0 |
| 20260505174905 | 63 | 168 | 2.0 | 3.0 | 0.00 | 0.00 | 0.00 | 99 | 1013.2 |
| 20260505173105 | 63 | 102 | 1.0 | 2.0 | 0.00 | 0.00 | 0.00 | 99 | 1013.2 |
| 20260505172505 | 63 | 94 | 1.0 | 2.0 | 0.00 | 0.00 | 0.00 | 99 | 1013.4 |
| 20260505171905 | 64 | 128 | 1.0 | 2.0 | 0.00 | 0.00 | 0.00 | 99 | 1013.5 |
| 20260505170105 | 64 | 147 | 2.0 | 3.0 | 0.00 | 0.00 | 0.00 | 99 | 1013.3 |
| 20260505165505 | 64 | 107 | 2.0 | 3.0 | 0.00 | 0.00 | 0.00 | 99 | 1013.2 |
| 20260505164905 | 64 | 240 | 1.0 | 2.0 | 0.00 | 0.00 | 0.00 | 99 | 1013.4 |
| 20260505163705 | 65 | 205 | 2.0 | 3.0 | 0.00 | 0.00 | 0.00 | 99 | 1013.5 |
| 20260505163105 | 65 | 248 | 1.0 | 3.0 | 0.00 | 0.00 | 0.00 | 99 | 1013.5 |
| 20260505162504 | 65 | 272 | 1.0 | 3.0 | 0.00 | 0.00 | 0.00 | 99 | 1013.5 |
| 20260505161905 | 65 | 190 | 2.0 | 4.0 | 0.00 | 0.00 | 0.00 | 99 | 1013.6 |
| 20260505161304 | 65 | 193 | 2.0 | 4.0 | 0.00 | 0.00 | 0.00 | 98 | 1013.7 |
| 20260505160705 | 65 | 192 | 2.0 | 3.0 | 0.00 | 0.00 | 0.00 | 98 | 1013.7 |
| 20260505160104 | 65 | 113 | 2.0 | 4.0 | 0.00 | 0.00 | 0.00 | 99 | 1013.8 |
| 20260505153104 | 67 | 254 | 2.0 | 3.0 | 0.00 | 0.00 | 0.00 | 96 | 1013.9 |
| 20260505152505 | 67 | 266 | 2.0 | 3.0 | 0.00 | 0.00 | 0.00 | 94 | 1014.0 |
| 20260505151905 | 68 | 257 | 1.0 | 3.0 | 0.00 | 0.00 | 0.00 | 93 | 1014.1 |
| 20260505151304 | 68 | 246 | 2.0 | 3.0 | 0.00 | 0.00 | 0.00 | 93 | 1014.2 |
| 20260505150705 | 68 | 245 | 2.0 | 3.0 | 0.00 | 0.00 | 0.00 | 92 | 1014.2 |
| 20260505150104 | 68 | 286 | 1.0 | 3.0 | 0.00 | 0.00 | 0.00 | 93 | 1014.2 |
| 20260505140104 | 68 | 280 | 2.0 | 3.0 | 0.00 | 0.00 | 0.00 | 90 | 1014.8 |
| 20260505130104 | 69 | 294 | 2.0 | 3.0 | 0.00 | 0.00 | 0.00 | 87 | 1015.2 |
| 20260505124905 | 69 | 296 | 2.0 | 3.0 | 0.00 | 0.00 | 0.00 | 87 | 1015.3 |
| 20260505124305 | 69 | 296 | 2.0 | 3.0 | 0.00 | 0.00 | 0.00 | 87 | 1015.4 |
| 20260505123705 | 69 | 280 | 1.0 | 2.0 | 0.00 | 0.00 | 0.00 | 87 | 1015.3 |
| 20260505123104 | 69 | 266 | 2.0 | 2.0 | 0.00 | 0.00 | 0.00 | 88 | 1015.5 |
| 20260505122504 | 69 | 275 | 2.0 | 3.0 | 0.00 | 0.00 | 0.00 | 88 | 1015.4 |
| 20260505121904 | 69 | 289 | 3.0 | 4.0 | 0.00 | 0.00 | 0.00 | 88 | 1015.5 |
| 20260505121304 | 69 | 289 | 2.0 | 4.0 | 0.00 | 0.00 | 0.00 | 88 | 1015.5 |
| 20260505114305 | 68 | 291 | 2.0 | 3.0 | 0.00 | 0.00 | 0.00 | 89 | 1015.5 |
| 20260505111904 | 68 | 285 | 15.0 | 17.0 | 0.00 | 0.00 | 0.00 | 90 | 1015.7 |
| 20260505111304 | 67 | 276 | 15.0 | 17.0 | 0.00 | 0.00 | 0.00 | 90 | 1015.7 |
| 20260505110704 | 67 | 269 | 15.0 | 17.0 | 0.00 | 0.00 | 0.00 | 92 | 1015.7 |
| 20260505110105 | 67 | 285 | 15.0 | 17.0 | 0.00 | 0.00 | 0.00 | 92 | 1015.8 |
| 20260505101905 | 66 | 278 | 16.0 | 18.0 | 0.00 | 0.00 | 0.00 | 93 | 1015.5 |
| 20260505101305 | 66 | 280 | 16.0 | 18.0 | 0.00 | 0.00 | 0.00 | 93 | 1015.5 |
| 20260505100705 | 66 | 262 | 16.0 | 18.0 | 0.00 | 0.00 | 0.00 | 93 | 1015.6 |
| 20260505100105 | 65 | 153 | 15.0 | 16.0 | 0.00 | 0.00 | 0.00 | 93 | 1015.4 |
| 20260505095504 | 65 | 125 | 15.0 | 16.0 | 0.00 | 0.00 | 0.00 | 93 | 1015.2 |
| 20260505093705 | 66 | 130 | 15.0 | 15.0 | 0.00 | 0.00 | 0.00 | 92 | 1015.0 |
| 20260505093105 | 66 | 130 | 15.0 | 16.0 | 0.00 | 0.00 | 0.00 | 89 | 1015.0 |
| 20260505092505 | 66 | 114 | 15.0 | 16.0 | 0.00 | 0.00 | 0.00 | 88 | 1014.8 |
| 20260505091904 | 68 | 103 | 14.0 | 15.0 | 0.00 | 0.00 | 0.00 | 85 | 1014.7 |
| 20260505091304 | 68 | 114 | 14.0 | 15.0 | 0.00 | 0.00 | 0.00 | 86 | 1014.7 |
| 20260505084904 | 69 | 109 | 13.0 | 15.0 | 0.00 | 0.00 | 0.00 | 84 | 1014.3 |
| 20260505084304 | 68 | 108 | 14.0 | 15.0 | 0.00 | 0.00 | 0.00 | 85 | 1014.2 |
| 20260505083705 | 69 | 102 | 14.0 | 15.0 | 0.00 | 0.00 | 0.00 | 84 | 1014.2 |
| 20260505083105 | 69 | 97 | 14.0 | 15.0 | 0.00 | 0.00 | 0.00 | 82 | 1014.1 |
| 20260505082505 | 70 | 94 | 14.0 | 15.0 | 0.00 | 0.00 | 0.00 | 81 | 1014.0 |
| 20260505081305 | 71 | 102 | 14.0 | 16.0 | 0.00 | 0.00 | 0.00 | 77 | 1013.9 |
| 20260505080705 | 71 | 99 | 13.0 | 15.0 | 0.00 | 0.00 | 0.00 | 77 | 1013.8 |
| 20260505080104 | 72 | 117 | 13.0 | 16.0 | 0.00 | 0.00 | 0.00 | 75 | 1013.8 |
| 20260505075505 | 73 | 115 | 13.0 | 16.0 | 0.00 | 0.00 | 0.00 | 73 | 1013.7 |
| 20260505074905 | 73 | 92 | 13.0 | 14.0 | 0.00 | 0.00 | 0.00 | 73 | 1013.5 |
| 20260505074304 | 74 | 107 | 13.0 | 14.0 | 0.00 | 0.00 | 0.00 | 72 | 1013.5 |
| 20260505072505 | 75 | 117 | 13.0 | 15.0 | 0.00 | 0.00 | 0.00 | 70 | 1013.2 |
| 20260505071305 | 75 | 108 | 13.0 | 15.0 | 0.00 | 0.00 | 0.00 | 69 | 1013.2 |
| 20260505065504 | 75 | 109 | 12.0 | 16.0 | 0.00 | 0.00 | 0.00 | 68 | 1013.0 |
| 20260505064904 | 76 | 103 | 12.0 | 15.0 | 0.00 | 0.00 | 0.00 | 68 | 1013.0 |
| 20260505064304 | 76 | 110 | 13.0 | 17.0 | 0.00 | 0.00 | 0.00 | 68 | 1012.9 |
| 20260505063704 | 77 | 100 | 13.0 | 18.0 | 0.00 | 0.00 | 0.00 | 66 | 1012.8 |
| 20260505062505 | 78 | 97 | 13.0 | 18.0 | 0.00 | 0.00 | 0.00 | 66 | 1012.8 |
| 20260505061905 | 79 | 99 | 13.0 | 19.0 | 0.00 | 0.00 | 0.00 | 65 | 1012.8 |
| 20260505060705 | 79 | 97 | 14.0 | 21.0 | 0.00 | 0.00 | 0.00 | 68 | 1012.7 |
| 20260505060104 | 80 | 105 | 13.0 | 19.0 | 0.00 | 0.00 | 0.00 | 66 | 1012.6 |
| 20260505055505 | 81 | 103 | 13.0 | 19.0 | 0.00 | 0.00 | 0.00 | 64 | 1012.6 |
| 20260505054905 | 82 | 102 | 14.0 | 17.0 | 0.00 | 0.00 | 0.00 | 62 | 1012.5 |
| 20260505054305 | 82 | 95 | 15.0 | 18.0 | 0.00 | 0.00 | 0.00 | 62 | 1012.5 |
| 20260505053705 | 83 | 80 | 15.0 | 18.0 | 0.00 | 0.00 | 0.00 | 61 | 1012.4 |
| 20260505053104 | 83 | 83 | 14.0 | 16.0 | 0.00 | 0.00 | 0.00 | 59 | 1012.4 |
| 20260505052505 | 83 | 84 | 14.0 | 17.0 | 0.00 | 0.00 | 0.00 | 54 | 1012.2 |
| 20260505051305 | 85 | 89 | 14.0 | 17.0 | 0.00 | 0.00 | 0.00 | 52 | 1012.2 |
| 20260505050704 | 85 | 101 | 14.0 | 17.0 | 0.00 | 0.00 | 0.00 | 50 | 1012.2 |
| 20260505050105 | 85 | 97 | 14.0 | 16.0 | 0.00 | 0.00 | 0.00 | 50 | 1012.1 |
| 20260505041305 | 85 | 91 | 16.0 | 21.0 | 0.00 | 0.00 | 0.00 | 49 | 1012.5 |
| 20260505040705 | 85 | 100 | 16.0 | 21.0 | 0.00 | 0.00 | 0.00 | 47 | 1012.4 |
| 20260505040104 | 86 | 101 | 17.0 | 21.0 | 0.00 | 0.00 | 0.00 | 45 | 1012.5 |
| 20260505035505 | 86 | 106 | 17.0 | 21.0 | 0.00 | 0.00 | 0.00 | 44 | 1012.6 |
| 20260505034905 | 86 | 105 | 16.0 | 20.0 | 0.00 | 0.00 | 0.00 | 44 | 1012.6 |
| 20260505034305 | 86 | 102 | 15.0 | 20.0 | 0.00 | 0.00 | 0.00 | 44 | 1012.8 |
| 20260505033705 | 85 | 104 | 14.0 | 20.0 | 0.00 | 0.00 | 0.00 | 45 | 1012.8 |
| 20260505033105 | 85 | 94 | 16.0 | 20.0 | 0.00 | 0.00 | 0.00 | 44 | 1012.8 |
| 20260505031905 | 84 | 136 | 15.0 | 18.0 | 0.00 | 0.00 | 0.00 | 45 | 1012.8 |
| 20260505031305 | 85 | 144 | 15.0 | 18.0 | 0.00 | 0.00 | 0.00 | 46 | 1012.9 |
| 20260505030705 | 85 | 99 | 12.0 | 18.0 | 0.00 | 0.00 | 0.00 | 48 | 1013.0 |
| 20260505030104 | 85 | 83 | 13.0 | 15.0 | 0.00 | 0.00 | 0.00 | 47 | 1012.9 |
| 20260505025505 | 85 | 122 | 14.0 | 17.0 | 0.00 | 0.00 | 0.00 | 49 | 1013.2 |
| 20260505023105 | 84 | 101 | 13.0 | 16.0 | 0.00 | 0.00 | 0.00 | 46 | 1013.8 |
| 20260505022505 | 84 | 94 | 13.0 | 18.0 | 0.00 | 0.00 | 0.00 | 49 | 1013.8 |
| 20260505021904 | 83 | 105 | 13.0 | 18.0 | 0.00 | 0.00 | 0.00 | 51 | 1013.8 |
| 20260505021304 | 83 | 100 | 13.0 | 16.0 | 0.00 | 0.00 | 0.00 | 52 | 1014.0 |
| 20260505020704 | 83 | 75 | 12.0 | 16.0 | 0.00 | 0.00 | 0.00 | 51 | 1014.2 |
| 20260505015505 | 83 | 87 | 14.0 | 18.0 | 0.00 | 0.00 | 0.00 | 52 | 1014.2 |
| 20260505014904 | 83 | 79 | 14.0 | 17.0 | 0.00 | 0.00 | 0.00 | 54 | 1014.1 |
| 20260505014304 | 82 | 120 | 14.0 | 17.0 | 0.00 | 0.00 | 0.00 | 54 | 1014.3 |
| 20260505013705 | 82 | 110 | 14.0 | 17.0 | 0.00 | 0.00 | 0.00 | 55 | 1014.5 |
| 20260505013105 | 81 | 116 | 13.0 | 17.0 | 0.00 | 0.00 | 0.00 | 56 | 1014.5 |
| 20260505012505 | 80 | 109 | 12.0 | 13.0 | 0.00 | 0.00 | 0.00 | 59 | 1014.7 |
| 20260505011305 | 81 | 91 | 14.0 | 17.0 | 0.00 | 0.00 | 0.00 | 58 | 1014.8 |
| 20260505010705 | 81 | 93 | 14.0 | 19.0 | 0.00 | 0.00 | 0.00 | 58 | 1014.8 |
| 20260505010104 | 80 | 98 | 14.0 | 19.0 | 0.00 | 0.00 | 0.00 | 61 | 1014.9 |
| 20260505005505 | 81 | 96 | 13.0 | 16.0 | 0.00 | 0.00 | 0.00 | 59 | 1014.9 |
| 20260505004905 | 81 | 98 | 14.0 | 17.0 | 0.00 | 0.00 | 0.00 | 59 | 1015.0 |
| 20260505004305 | 81 | 104 | 14.0 | 17.0 | 0.00 | 0.00 | 0.00 | 62 | 1015.2 |
| 20260505003704 | 80 | 100 | 15.0 | 17.0 | 0.00 | 0.00 | 0.00 | 63 | 1015.7 |
| 20260505003105 | 80 | 102 | 15.0 | 17.0 | 0.00 | 0.00 | 0.00 | 62 | 1015.5 |
| 20260505002504 | 80 | 98 | 14.0 | 17.0 | 0.00 | 0.00 | 0.00 | 65 | 1015.4 |
| 20260505001905 | 80 | 114 | 14.0 | 17.0 | 0.00 | 0.00 | 0.00 | 67 | 1015.5 |
| 20260505000105 | 78 | 101 | 13.0 | 15.0 | 0.00 | 0.00 | 0.00 | 68 | 1015.7 |
| 20260504235504 | 79 | 115 | 13.0 | 14.0 | 0.00 | 0.00 | 0.00 | 69 | 1015.8 |
| 20260504234904 | 79 | 79 | 13.0 | 17.0 | 0.00 | 0.00 | 0.00 | 69 | 1015.8 |
| 20260504233704 | 78 | 100 | 13.0 | 15.0 | 0.00 | 0.00 | 0.00 | 69 | 1015.8 |
| 20260504233105 | 78 | 65 | 14.0 | 17.0 | 0.00 | 0.00 | 0.00 | 70 | 1015.9 |
| 20260504232504 | 78 | 52 | 14.0 | 17.0 | 0.00 | 0.00 | 0.00 | 71 | 1015.8 |
| 20260504231905 | 78 | 358 | 13.0 | 16.0 | 0.00 | 0.00 | 0.00 | 73 | 1015.9 |
| 20260504231305 | 76 | 2 | 13.0 | 16.0 | 0.00 | 0.00 | 0.00 | 76 | 1015.8 |
| 20260504230705 | 75 | 329 | 12.0 | 16.0 | 0.00 | 0.00 | 0.00 | 77 | 1015.8 |
| 20260504230105 | 74 | 305 | 12.0 | 13.0 | 0.00 | 0.00 | 0.00 | 81 | 1015.8 |
| 20260504225505 | 74 | 305 | 12.0 | 14.0 | 0.00 | 0.00 | 0.00 | 82 | 1015.8 |
| 20260504224904 | 73 | 317 | 13.0 | 14.0 | 0.00 | 0.00 | 0.00 | 83 | 1015.8 |
| 20260504224304 | 73 | 299 | 13.0 | 14.0 | 0.00 | 0.00 | 0.00 | 83 | 1015.8 |
| 20260504223705 | 72 | 316 | 13.0 | 14.0 | 0.00 | 0.00 | 0.00 | 84 | 1015.6 |
| 20260504223105 | 71 | 322 | 13.0 | 14.0 | 0.00 | 0.00 | 0.00 | 85 | 1015.7 |
| 20260504221905 | 69 | 26 | 13.0 | 15.0 | 0.00 | 0.00 | 0.00 | 90 | 1015.8 |
| 20260504221305 | 67 | 99 | 13.0 | 14.0 | 0.00 | 0.00 | 0.00 | 90 | 1015.8 |
| 20260504220704 | 67 | 108 | 13.0 | 14.0 | 0.00 | 0.00 | 0.00 | 93 | 1015.8 |
| 20260504220104 | 67 | 121 | 13.0 | 14.0 | 0.00 | 0.00 | 0.00 | 92 | 1015.8 |
| 20260504215505 | 65 | 112 | 13.0 | 15.0 | 0.00 | 0.00 | 0.00 | 95 | 1015.8 |
| 20260504214905 | 64 | 114 | 13.0 | 15.0 | 0.00 | 0.00 | 0.00 | 94 | 1015.8 |
| 20260504214305 | 63 | 115 | 14.0 | 15.0 | 0.00 | 0.00 | 0.00 | 95 | 1015.8 |
| 20260504213705 | 63 | 114 | 14.0 | 15.0 | 0.00 | 0.00 | 0.00 | 95 | 1015.8 |
| 20260504213105 | 61 | 114 | 15.0 | 16.0 | 0.00 | 0.00 | 0.00 | 99 | 1015.7 |
| 20260504212505 | 60 | 114 | 15.0 | 16.0 | 0.00 | 0.00 | 0.00 | 99 | 1015.7 |
| 20260504211905 | 60 | 125 | 14.0 | 16.0 | 0.00 | 0.00 | 0.00 | 99 | 1015.5 |
| 20260504211304 | 59 | 135 | 15.0 | 16.0 | 0.00 | 0.00 | 0.00 | 99 | 1015.5 |
| 20260504210704 | 59 | 236 | 15.0 | 16.0 | 0.00 | 0.00 | 0.00 | 99 | 1015.5 |
| 20260504210105 | 59 | 121 | 14.0 | 16.0 | 0.00 | 0.00 | 0.00 | 99 | 1015.4 |